Regional Weather Roundup
Issued by NWS

Home | Current Version | Previous Version | Text Only | Print | Product List | Glossary On
Versions: 1 2 3 4 5 6 7 8 9 10 11 12 13 14 15 16 17 18 19 20 21 22 23 24 25 26 27 28 29 30 31 32 33 34 35 36 37 38 39 40 41 42 43 44 45 46 47 48 49 50
000
ASUS43 KFSD 302010
RWRSD

WEATHER ROUNDUP FOR SOUTH DAKOTA
NATIONAL WEATHER SERVICE SIOUX FALLS SD
300 PM CDT THU MAR 30 2017

NOTE: "FAIR" INDICATES FEW OR NO CLOUDS BELOW 12,000 FEET WITH NO
SIGNIFICANT WEATHER AND/OR OBSTRUCTIONS TO VISIBILITY.


SDZ001>005-009-010-012>017-302100-
NORTHWEST AND NORTH CENTRAL SOUTH DAKOTA

CITY           SKY/WX    TMP DP  RH WIND       PRES   REMARKS
BUFFALO          N/A     59  39  47 SE13G20   29.65S
FAITH            N/A     51  38  60 S14       29.77S
MOBRIDGE       MOSUNNY   50  34  54 S13       29.79F
$$

SDZ012>016-024>037-041>051-057-063-072>074-302100-
SOUTHWEST AND SOUTH CENTRAL SOUTH DAKOTA

CITY           SKY/WX    TMP DP  RH WIND       PRES   REMARKS
RAPID CTY ARPT CLOUDY    52  36  54 SE13      29.74S
PIERRE         CLOUDY    44  34  67 SE9       29.81F
CUSTER         CLOUDY    48  32  53 SE8       29.73F
ELLSWORTH AFB  CLOUDY    53  39  60 CALM      29.73S
PHILIP         CLOUDY    48  37  65 SE9       29.78S
PINE RIDGE     CLOUDY    53  35  50 SE6       29.73F
SPEARFISH      FAIR      52  41  66 N5        29.72S
WINNER         CLOUDY    47  35  63 NE5       29.81F
$$

SDZ004>011-016>023-039-040-302100-
NORTHEAST SOUTH DAKOTA

CITY           SKY/WX    TMP DP  RH WIND       PRES   REMARKS
ABERDEEN       CLOUDY    46  33  60 VRB5      29.85F
WATERTOWN      CLOUDY    44  36  73 NE8       29.82F
BROOKINGS      CLOUDY    43  36  75 NE9       29.80F
SISSETON         N/A     47  37  68 CALM      29.85F
$$

SDZ017-020-022-023-036>040-048>070-302100-
SOUTHEAST SOUTH DAKOTA

CITY           SKY/WX    TMP DP  RH WIND       PRES   REMARKS
SIOUX FALLS    CLOUDY    44  39  82 NE12      29.80R
HURON          CLOUDY    47  36  65 NE8       29.82F
CHAMBERLAIN    CLOUDY    48  37  65 NE3       29.81F
MITCHELL       CLOUDY    48  36  63 NE12      29.81F
YANKTON        CLOUDY    45  36  70 N10       29.79S
$$

ABBREVIATIONS USED IN REMARKS
   TC - TEMPERATURE IN CELSIUS
  WCI - WIND CHILL INDEX
   HX - HEAT INDEX
  VSB - VISIBILITY




USA.gov is the U.S. government's official web portal to all federal, state and local government web resources and services.